EW9862 Weather Reports


time (UTC)temp
F
wind
direction
speed
knots
gust
knots
rain 1hr
in
rain 24hr
in
rain mn
in
humidity
%
barometer
mb
20260506010010 46 65 0.0 1.7 0.00 0.00 0.00 83 1015.6
20260506004536 46 51 0.0 0.9 0.00 0.00 0.00 84 1015.7
20260506003008 46 43 0.0 0.9 0.00 0.00 0.00 84 1015.7
20260506001522 46 72 0.0 1.7 0.00 0.00 0.00 84 1015.7
20260506000017 46 52 0.9 2.6 0.00 0.00 0.00 85 1015.6
20260505234514 46 51 0.9 1.7 0.00 0.00 0.00 85 1015.6
20260505233024 47 51 0.0 1.7 0.00 0.00 0.00 85 1015.5
20260505231536 47 58 0.0 5.2 0.00 0.00 0.00 85 1015.6
20260505230028 47 46 0.9 1.7 0.00 0.00 0.00 85 1015.5
20260505224505 46 60 0.9 1.7 0.00 0.00 0.00 86 1015.4
20260505223010 45 333 0.0 0.9 0.00 0.00 0.00 86 1015.5
20260505221519 45 306 0.0 0.0 0.00 0.00 0.00 86 1015.5
20260505220022 45 306 0.0 0.0 0.00 0.00 0.00 85 1015.5
20260505214516 45 306 0.0 0.0 0.00 0.00 0.00 85 1015.5
20260505213013 45 306 0.0 0.0 0.00 0.00 0.00 84 1015.5
20260505211505 45 306 0.0 0.0 0.00 0.00 0.00 84 1015.4
20260505210003 46 352 0.0 0.9 0.00 0.00 0.00 83 1015.3
20260505204519 46 12 0.0 0.9 0.00 0.00 0.00 83 1015.3
20260505203016 46 12 0.0 0.9 0.00 0.00 0.00 82 1015.3
20260505201504 46 1 0.0 0.0 0.00 0.00 0.00 81 1015.4
20260505200005 47 359 0.0 0.0 0.00 0.00 0.00 79 1015.2
20260505194516 48 20 0.0 0.9 0.00 0.00 0.00 77 1015.1
20260505193003 49 10 0.0 1.7 0.00 0.00 0.00 75 1014.9
20260505191523 50 19 0.0 2.6 0.00 0.00 0.00 73 1014.7
20260505190018 52 319 0.9 3.5 0.00 0.00 0.00 71 1014.6
20260505184508 53 19 0.0 1.7 0.00 0.00 0.00 71 1014.7
20260505183017 52 309 0.0 2.6 0.00 0.00 0.00 72 1014.6
20260505181510 52 291 0.0 1.7 0.00 0.00 0.00 75 1014.6
20260505180007 52 310 0.9 2.6 0.00 0.00 0.00 76 1014.6
20260505174526 51 56 0.0 0.9 0.00 0.00 0.00 75 1014.7
20260505173008 51 52 0.9 0.9 0.00 0.00 0.00 76 1014.7
20260505171512 51 54 0.9 2.6 0.00 0.00 0.00 76 1014.8
20260505170016 51 62 0.0 2.6 0.00 0.00 0.00 78 1014.8
20260505164511 51 45 0.0 1.7 0.00 0.00 0.00 78 1014.9
20260505163009 51 53 1.7 2.6 0.00 0.00 0.00 77 1015.0
20260505161511 51 55 1.7 3.5 0.00 0.00 0.00 76 1014.9
20260505153018 52 65 0.0 1.7 0.00 0.00 0.00 72 1014.9
20260505151513 52 21 0.0 2.6 0.00 0.00 0.00 75 1014.9
20260505124504 51 302 0.9 3.5 0.00 0.00 0.00 73 1015.3
20260505123006 51 342 0.0 3.5 0.00 0.00 0.00 73 1015.3
20260505121520 52 22 1.7 6.1 0.00 0.00 0.00 71 1015.4
20260505120003 53 21 0.9 3.5 0.00 0.00 0.00 70 1015.2
20260505114508 53 18 1.7 3.5 0.00 0.00 0.00 68 1015.2
20260505113007 52 23 0.9 2.6 0.00 0.00 0.00 74 1015.3
20260505111509 51 356 0.0 1.7 0.00 0.00 0.00 77 1015.5
20260505101514 51 3 0.9 3.5 0.00 0.00 0.00 76 1015.6
20260505100012 51 23 1.7 5.2 0.00 0.00 0.00 80 1015.6
20260505094511 51 3 0.9 1.7 0.00 0.00 0.00 82 1015.7
20260505093004 50 15 0.0 1.7 0.00 0.00 0.00 82 1015.7
20260505091512 50 22 1.7 2.6 0.00 0.00 0.00 80 1015.7
20260505090014 50 15 0.0 3.5 0.00 0.00 0.00 79 1015.6
20260505084534 50 349 1.7 4.3 0.00 0.00 0.00 80 1015.8
20260505083012 51 347 0.0 3.5 0.00 0.00 0.00 81 1015.8
20260505081516 51 6 0.0 2.6 0.00 0.00 0.00 80 1015.9
20260505080009 51 300 0.9 3.5 0.00 0.00 0.00 78 1015.8
20260505074526 51 1 1.7 3.5 0.00 0.00 0.00 77 1015.7
20260505073022 51 19 0.0 2.6 0.00 0.00 0.00 80 1015.6
20260505071520 49 355 0.0 3.5 0.00 0.00 0.00 85 1015.7
20260505070018 47 241 0.0 1.7 0.00 0.00 0.00 86 1015.7
20260505064517 46 264 0.0 0.9 0.00 0.00 0.00 87 1015.8
20260505063017 44 258 0.0 0.9 0.00 0.00 0.00 89 1015.9
20260505061525 44 340 0.0 0.0 0.00 0.00 0.00 89 1015.8
20260505060032 43 340 0.0 0.0 0.00 0.00 0.00 89 1015.8
20260505054523 43 340 0.0 0.0 0.00 0.00 0.00 89 1015.8
20260505053021 42 340 0.0 0.0 0.00 0.00 0.00 89 1015.8
20260505051518 40 340 0.0 0.0 0.00 0.00 0.00 89 1015.9
20260505041507 40 340 0.0 0.0 0.00 0.00 0.00 89 1015.6
20260505040005 40 340 0.0 0.0 0.00 0.00 0.00 89 1015.5
20260505034524 41 340 0.0 0.0 0.00 0.00 0.00 89 1015.5
20260505033008 41 340 0.0 0.0 0.00 0.00 0.00 89 1015.6
20260505031512 42 340 0.0 0.0 0.00 0.00 0.00 89 1015.6
20260505030008 44 340 0.0 0.0 0.00 0.00 0.00 89 1015.6
20260505024507 44 340 0.0 0.0 0.00 0.00 0.00 89 1015.6
20260505023005 45 340 0.0 0.0 0.00 0.00 0.00 89 1015.7
20260505021508 46 340 0.0 0.0 0.00 0.00 0.00 89 1015.6
20260505020013 46 340 0.0 0.0 0.00 0.00 0.00 89 1015.8
20260505014513 46 340 0.0 0.0 0.00 0.00 0.00 89 1015.9
20260505013008 46 340 0.0 0.0 0.00 0.00 0.00 89 1016.1
20260505011507 46 340 0.0 0.0 0.00 0.00 0.00 89 1016.2